Location: ČR
(50.0000°N, 15.0000°E)
Time: 09:25:04
(UTC+00:00)

S-56A Canister/Altair - All Passes

Search period start: 21 October 2021 00:00
Search period end: 31 October 2021 00:00
Orbit: 632 x 2501 km, 38.9° (Epoch: 20 October)

Date Brightness Start Highest point End Pass type
(mag) Time Alt. Az. Time Alt. Az. Time Alt. Az.
21 Oct - 10:50:46 10° S 10:57:59 21° SE 11:06:47 10° E daylight
21 Oct - 12:50:45 10° SW 13:01:18 43° SSE 13:14:41 10° E daylight
21 Oct - 14:53:52 10° WSW 15:06:19 53° S 15:20:43 10° ESE daylight
21 Oct - 16:58:37 10° W 17:11:41 44° SSW 17:24:59 10° SE visible
21 Oct - 19:05:30 10° W 19:15:52 23° SW 19:25:39 10° S visible
22 Oct - 10:19:10 10° SSE 10:25:15 18° SE 10:32:30 10° E daylight
22 Oct - 12:18:18 10° SW 12:28:11 40° SSE 12:41:00 10° E daylight
22 Oct - 14:21:02 10° WSW 14:32:57 53° S 14:47:18 10° ESE daylight
22 Oct - 16:25:27 10° W 16:38:19 45° SSW 16:51:59 10° SE visible
22 Oct - 18:31:47 10° W 18:42:45 26° SW 18:53:23 10° S visible
23 Oct - 09:47:57 10° SSE 09:52:35 14° SE 09:57:54 10° ESE daylight
23 Oct - 11:45:57 10° SSW 11:55:09 37° SSE 12:07:16 10° E daylight
23 Oct - 13:48:17 10° WSW 13:59:37 52° S 14:13:49 10° ESE daylight
23 Oct - 15:52:24 10° W 16:04:56 47° SSW 16:18:51 10° SE daylight
23 Oct - 17:58:14 10° W 18:09:35 28° SW 18:20:55 10° SSE visible
24 Oct - 09:17:50 10° SE 09:19:59 11° SE 09:22:17 10° ESE daylight
24 Oct - 11:13:43 10° SSW 11:22:12 33° SSE 11:33:28 10° E daylight
24 Oct - 13:15:38 10° WSW 13:26:21 50° S 13:40:15 10° ESE daylight
24 Oct - 15:19:25 10° W 15:31:34 48° SSW 15:45:38 10° SE daylight
24 Oct - 17:24:49 10° W 17:36:22 31° SW 17:48:18 10° SSE visible
24 Oct - 19:37:06 10° WSW 19:39:39 11° SW 19:42:11 10° SW visible
25 Oct - 10:41:36 10° SSW 10:49:21 29° SE 10:59:38 10° E daylight
25 Oct - 12:43:04 10° WSW 12:53:09 48° SSE 13:06:38 10° E daylight
25 Oct - 14:46:33 10° W 14:58:13 49° S 15:12:19 10° ESE daylight
25 Oct - 16:51:33 10° W 17:03:08 33° SSW 17:15:32 10° SSE visible
25 Oct - 19:01:12 10° WSW 19:06:42 13° SW 19:12:12 10° SSW visible
26 Oct - 10:09:36 10° SSW 10:16:35 26° SE 10:25:45 10° E daylight
26 Oct - 12:10:35 10° SW 12:20:02 46° SSE 12:32:58 10° E daylight
26 Oct - 14:13:45 10° WSW 14:24:54 50° S 14:38:55 10° ESE daylight
26 Oct - 16:18:23 10° W 16:29:53 35° SSW 16:42:38 10° SSE visible
26 Oct - 18:26:39 10° WSW 18:33:43 15° SW 18:40:52 10° SSW visible
27 Oct - 09:37:46 10° S 09:43:54 22° SE 09:51:47 10° E daylight
27 Oct - 11:38:11 10° SW 11:47:00 43° SSE 11:59:17 10° E daylight
27 Oct - 13:41:03 10° WSW 13:51:38 50° S 14:05:26 10° ESE daylight
27 Oct - 15:45:21 10° W 15:56:37 37° SSW 16:09:37 10° SSE daylight
27 Oct - 17:52:37 10° W 18:00:40 18° SW 18:09:01 10° SSW visible
28 Oct - 09:06:07 10° S 09:11:17 18° SE 09:17:43 10° E daylight
28 Oct - 11:05:52 10° SW 11:14:03 40° SSE 11:25:35 10° E daylight
28 Oct - 13:08:26 10° WSW 13:18:26 49° S 13:31:55 10° ESE daylight
28 Oct - 15:12:24 10° W 15:23:21 39° SSW 15:36:29 10° SE daylight
28 Oct - 17:18:54 10° W 17:27:36 20° SW 17:36:51 10° S visible
29 Oct - 08:34:47 10° SSE 08:38:45 15° SE 08:43:27 10° ESE daylight
29 Oct - 10:33:38 10° SW 10:41:12 37° SSE 10:51:51 10° E daylight
29 Oct - 12:35:53 10° WSW 12:45:18 48° S 12:58:19 10° ESE daylight
29 Oct - 14:39:34 10° W 14:50:07 40° SSW 15:03:16 10° SE daylight
29 Oct - 16:45:26 10° W 16:54:30 22° SW 17:04:26 10° S visible
30 Oct - 08:04:12 10° SE 08:06:16 11° SE 08:08:31 10° ESE daylight
30 Oct - 10:01:29 10° SSW 10:08:25 33° SSE 10:18:08 10° E daylight
30 Oct - 12:03:24 10° WSW 12:12:13 47° S 12:24:42 10° ESE daylight
30 Oct - 14:06:49 10° W 14:16:55 41° SSW 14:29:56 10° SE daylight
30 Oct - 16:12:08 10° W 16:21:23 24° SW 16:31:49 10° S visible
